When you browse on this site, cookies collect data to enhance your experience and personalize the content and advertising you see.
Visit our Privacy Policy to learn more. By continuing to use the site, you agree to this use of cookies and data.
  • In Deutschland
  • Länderverzeichnis
  • Für 7 Tage
  • Wassertemperatur
  • Wetterkarte
  • Widgets
  • user-avatar
    Anmelden

    Stündliche Wetter Blenheim

    Heute, 3 April, Freitag

    Zeit Temperatur Niederschläge Wind Luftdruck Luftfeuchtigkeit
    00:00 +13°C° 0 mm 2 m/S 765 mmHg 91%
    01:00 +12°C° 0 mm 2 m/S 765 mmHg 92%
    02:00 +12°C° 0 mm 1 m/S 765 mmHg 92%
    03:00 +11°C° 0 mm 1 m/S 765 mmHg 93%
    04:00 +11°C° 0 mm 1 m/S 765 mmHg 93%
    05:00 +11°C° 0 mm 1 m/S 765 mmHg 93%
    06:00 +11°C° 0 mm 1 m/S 765 mmHg 94%
    07:00 +13°C° 0 mm 1 m/S 765 mmHg 89%
    08:00 +14°C° 0 mm 1 m/S 765 mmHg 84%
    09:00 +15°C° 0 mm 1 m/S 766 mmHg 79%
    10:00 +16°C° 0 mm 2 m/S 765 mmHg 73%
    11:00 +17°C° 0 mm 2 m/S 765 mmHg 67%
    12:00 +19°C° 0 mm 3 m/S 765 mmHg 61%
    13:00 +19°C° 0 mm 3 m/S 765 mmHg 61%
    14:00 +19°C° 0 mm 4 m/S 765 mmHg 61%
    15:00 +19°C° 0 mm 4 m/S 765 mmHg 60%
    16:00 +17°C° 0 mm 3 m/S 765 mmHg 69%
    17:00 +16°C° 0 mm 3 m/S 765 mmHg 77%
    18:00 +14°C° 0 mm 2 m/S 765 mmHg 85%
    19:00 +14°C° 0 mm 2 m/S 766 mmHg 88%
    20:00 +13°C° 0 mm 2 m/S 766 mmHg 90%
    21:00 +12°C° 0 mm 2 m/S 767 mmHg 93%
    22:00 +12°C° 0 mm 2 m/S 767 mmHg 92%
    23:00 +12°C° 0 mm 2 m/S 767 mmHg 92%

    Morgen, 4 April, Samstag

    Zeit Temperatur Niederschläge Wind Luftdruck Luftfeuchtigkeit
    00:00 +12°C° 0 mm 2 m/S 767 mmHg 91%
    01:00 +12°C° 0 mm 2 m/S 767 mmHg 91%
    02:00 +10°C° 0 mm 2 m/S 767 mmHg 92%
    03:00 +10°C° 0 mm 2 m/S 767 mmHg 92%
    04:00 +10°C° 0 mm 2 m/S 767 mmHg 92%
    05:00 +10°C° 0 mm 2 m/S 767 mmHg 92%
    06:00 +10°C° 0 mm 2 m/S 767 mmHg 92%
    07:00 +13°C° 0 mm 1 m/S 768 mmHg 88%
    08:00 +14°C° 0 mm 1 m/S 768 mmHg 85%
    09:00 +16°C° 0 mm 1 m/S 768 mmHg 81%
    10:00 +18°C° 0 mm 1 m/S 768 mmHg 75%
    11:00 +19°C° 0 mm 1 m/S 768 mmHg 69%
    12:00 +20°C° 0 mm 1 m/S 768 mmHg 63%
    13:00 +19°C° 0 mm 2 m/S 768 mmHg 62%
    14:00 +20°C° 0 mm 2 m/S 767 mmHg 60%
    15:00 +20°C° 0 mm 3 m/S 767 mmHg 59%
    16:00 +18°C° 0 mm 2 m/S 767 mmHg 68%
    17:00 +16°C° 0 mm 2 m/S 767 mmHg 78%
    18:00 +15°C° 0 mm 1 m/S 767 mmHg 87%
    19:00 +14°C° 0 mm 1 m/S 767 mmHg 89%
    20:00 +13°C° 0 mm 1 m/S 768 mmHg 90%
    21:00 +13°C° 0 mm 1 m/S 768 mmHg 92%
    22:00 +12°C° 0 mm 1 m/S 768 mmHg 92%
    23:00 +12°C° 0 mm 2 m/S 768 mmHg 92%

    übermorgen, 5 April, Sonntag

    Zeit Temperatur Niederschläge Wind Luftdruck Luftfeuchtigkeit
    00:00 +12°C° 0 mm 2 m/S 769 mmHg 92%
    01:00 +12°C° 0 mm 2 m/S 769 mmHg 92%
    02:00 +12°C° 0 mm 2 m/S 769 mmHg 92%
    03:00 +10°C° 0 mm 2 m/S 769 mmHg 92%
    04:00 +10°C° 0 mm 2 m/S 768 mmHg 92%
    05:00 +10°C° 0 mm 2 m/S 768 mmHg 92%
    06:00 +10°C° 0 mm 3 m/S 768 mmHg 92%
    07:00 +12°C° 0 mm 3 m/S 768 mmHg 86%
    08:00 +13°C° 0 mm 3 m/S 769 mmHg 81%
    09:00 +16°C° 0 mm 3 m/S 769 mmHg 75%
    10:00 +18°C° 0 mm 3 m/S 768 mmHg 67%
    11:00 +20°C° 0 mm 4 m/S 768 mmHg 59%
    12:00 +22°C° 0 mm 4 m/S 768 mmHg 50%
    13:00 +22°C° 0 mm 4 m/S 767 mmHg 48%
    14:00 +23°C° 0 mm 5 m/S 767 mmHg 47%
    15:00 +23°C° 0 mm 5 m/S 767 mmHg 45%
    16:00 +21°C° 0 mm 4 m/S 767 mmHg 54%
    17:00 +19°C° 0 mm 4 m/S 767 mmHg 64%
    18:00 +17°C° 0 mm 4 m/S 766 mmHg 73%
    19:00 +16°C° 0 mm 3 m/S 767 mmHg 79%
    20:00 +14°C° 0 mm 3 m/S 767 mmHg 85%
    21:00 +14°C° 0 mm 2 m/S 768 mmHg 92%
    22:00 +14°C° 0 mm 2 m/S 767 mmHg 92%
    23:00 +14°C° 0 mm 2 m/S 767 mmHg 93%

    6 April, Montag

    Zeit Temperatur Niederschläge Wind Luftdruck Luftfeuchtigkeit
    00:00 +14°C° 0 mm 2 m/S 767 mmHg 94%
    01:00 +14°C° 0 mm 2 m/S 767 mmHg 94%
    02:00 +13°C° 0 mm 3 m/S 767 mmHg 94%
    03:00 +13°C° 0 mm 3 m/S 766 mmHg 94%
    04:00 +13°C° 0 mm 3 m/S 766 mmHg 94%
    05:00 +13°C° 0 mm 3 m/S 766 mmHg 93%
    06:00 +13°C° 0 mm 3 m/S 766 mmHg 93%
    07:00 +14°C° 0 mm 3 m/S 766 mmHg 88%
    08:00 +16°C° 0 mm 3 m/S 766 mmHg 84%
    09:00 +17°C° 0 mm 3 m/S 766 mmHg 80%
    10:00 +18°C° 0 mm 3 m/S 766 mmHg 72%
    11:00 +20°C° 0 mm 3 m/S 765 mmHg 65%
    12:00 +21°C° 0 mm 4 m/S 765 mmHg 58%
    13:00 +21°C° 0 mm 4 m/S 764 mmHg 57%
    14:00 +22°C° 0 mm 5 m/S 764 mmHg 57%
    15:00 +22°C° 0 mm 5 m/S 763 mmHg 57%
    16:00 +20°C° 0 mm 5 m/S 763 mmHg 64%
    17:00 +19°C° 0 mm 4 m/S 762 mmHg 71%
    18:00 +18°C° 0 mm 4 m/S 762 mmHg 78%
    19:00 +17°C° 0 mm 3 m/S 762 mmHg 83%
    20:00 +16°C° 0 mm 3 m/S 762 mmHg 88%
    21:00 +14°C° 0 mm 3 m/S 762 mmHg 92%
    22:00 +14°C° 0 mm 3 m/S 762 mmHg 93%
    23:00 +15°C° 0 mm 2 m/S 761 mmHg 93%

    7 April, Dienstag

    Zeit Temperatur Niederschläge Wind Luftdruck Luftfeuchtigkeit
    00:00 +15°C° 0 mm 2 m/S 761 mmHg 93%
    01:00 +14°C° 0 mm 3 m/S 761 mmHg 93%
    02:00 +13°C° 0 mm 3 m/S 760 mmHg 93%
    03:00 +13°C° 0 mm 3 m/S 760 mmHg 93%
    04:00 +13°C° 0 mm 3 m/S 760 mmHg 93%
    05:00 +13°C° 0 mm 3 m/S 760 mmHg 92%
    06:00 +13°C° 0 mm 3 m/S 759 mmHg 92%
    07:00 +14°C° 0 mm 3 m/S 759 mmHg 86%
    08:00 +16°C° 0 mm 3 m/S 759 mmHg 80%
    09:00 +17°C° 0 mm 3 m/S 759 mmHg 74%
    10:00 +19°C° 0 mm 4 m/S 759 mmHg 65%
    11:00 +21°C° 0 mm 5 m/S 758 mmHg 56%
    12:00 +22°C° 0 mm 5 m/S 758 mmHg 47%
    13:00 +22°C° 0 mm 5 m/S 757 mmHg 48%
    14:00 +22°C° 0 mm 5 m/S 757 mmHg 48%
    15:00 +22°C° 0 mm 6 m/S 757 mmHg 48%
    16:00 +21°C° 0 mm 5 m/S 756 mmHg 57%
    17:00 +19°C° 0 mm 4 m/S 756 mmHg 65%
    18:00 +18°C° 0 mm 4 m/S 756 mmHg 74%
    19:00 +17°C° 0 mm 3 m/S 756 mmHg 78%
    20:00 +16°C° 0 mm 3 m/S 756 mmHg 82%
    21:00 +16°C° 0 mm 3 m/S 756 mmHg 87%
    22:00 +16°C° 0 mm 2 m/S 756 mmHg 88%
    23:00 +16°C° 0 mm 2 m/S 756 mmHg 88%

    8 April, Mittwoch

    Zeit Temperatur Niederschläge Wind Luftdruck Luftfeuchtigkeit
    00:00 +15°C° 0 mm 2 m/S 756 mmHg 89%
    01:00 +15°C° 0.5 mm 1 m/S 755 mmHg 91%
    02:00 +15°C° 0.5 mm 1 m/S 755 mmHg 92%
    03:00 +15°C° 0.5 mm 1 m/S 754 mmHg 94%
    04:00 +15°C° 2.5 mm 1 m/S 754 mmHg 95%
    05:00 +15°C° 2.5 mm 1 m/S 754 mmHg 96%
    06:00 +15°C° 2.5 mm 2 m/S 754 mmHg 97%
    07:00 +15°C° 3.4 mm 2 m/S 754 mmHg 97%
    08:00 +15°C° 3.4 mm 2 m/S 754 mmHg 97%
    09:00 +15°C° 3.4 mm 2 m/S 753 mmHg 97%
    10:00 +16°C° 2.8 mm 2 m/S 753 mmHg 95%
    11:00 +16°C° 2.8 mm 2 m/S 753 mmHg 93%
    12:00 +17°C° 2.8 mm 2 m/S 752 mmHg 91%
    13:00 +16°C° 2.7 mm 2 m/S 752 mmHg 92%
    14:00 +16°C° 2.7 mm 2 m/S 752 mmHg 93%
    15:00 +14°C° 2.7 mm 3 m/S 751 mmHg 95%
    16:00 +14°C° 2.1 mm 3 m/S 751 mmHg 95%
    17:00 +14°C° 2.1 mm 3 m/S 751 mmHg 96%
    18:00 +13°C° 2.1 mm 4 m/S 751 mmHg 96%
    19:00 +13°C° 0.7 mm 3 m/S 751 mmHg 96%
    20:00 +13°C° 0.7 mm 3 m/S 752 mmHg 95%
    21:00 +14°C° 0.7 mm 2 m/S 752 mmHg 95%
    22:00 +14°C° 0 mm 2 m/S 752 mmHg 95%
    23:00 +13°C° 0 mm 2 m/S 752 mmHg 95%
    Mehr zeigen